Location: ????
(30.2663°N, 31.2484°E)
Time: 16:42:25
(UTC+00:00)

CZ-2C R/B - Pass Details

Date: 01 April 2023
Orbit: 784 x 869 km, 98.3° (Epoch: 04 June)

Event Time Altitude Azimuth Distance (km) Brightness Sun altitude
Exits shadow 02:02:29 47° 234° (SW) 1,130 2.9 -22.4°
Maximum altitude 02:03:15 50° 260° (W) 1,084 2.8 -22.2°
Drops below altitude 10° 02:08:37 10° 335° (NNW) 2,489 5.1 -21.1°
Sets 02:11:04 0° 341° (NNW) 3,418 5.9 -20.6°
